Wind_Speed
18 20 21 22 23 23 24 24 23 24 24 23 21 19 20 20 21 11 5 3 4 8 4 8 5 4 1 0 2 4 3 2 4 4 7 7 7 7 4 2 3 5 6 6 22
18 20 22 23 24 24 24 25 25 25 26 25 21 17 17 18 17 7 3 4 4 12 10 10 5 3 1 1 1 4 3 8 5 1 3 4 2 6 7 8 3 2 2 13 25
18 20 22 23 23 23 24 25 26 24 26 25 19 15 14 13 4 3 1 3 7 12 11 9 5 4 3 3 4 5 5 5 5 5 4 5 5 3 3 7 5 2 4 2 9
18 20 23 24 24 25 26 26 26 24 25 23 17 14 12 5 1 2 1 2 5 11 10 5 3 3 5 4 5 3 8 7 6 7 4 5 4 5 5 10 8 5 4 5 7
18 20 23 24 25 27 28 27 26 24 24 20 15 11 4 2 7 2 1 2 6 12 9 4 5 4 4 3 1 4 5 7 9 9 6 5 6 6 10 10 8 10 8 10 11
18 21 24 26 27 29 29 28 27 26 23 16 12 6 0 3 1 2 1 1 4 9 5 4 4 5 4 5 5 4 4 7 7 8 5 6 7 5 15 5 9 8 12 10 10
19 21 24 27 29 30 31 29 29 29 22 10 7 1 0 10 1 3 4 5 5 7 3 6 3 2 0 5 3 4 6 8 8 5 5 2 5 10 18 4 9 11 15 11 11
20 21 24 26 28 31 32 32 33 22 9 3 3 2 6 3 5 2 3 6 7 10 12 7 5 1 2 2 7 6 1 3 6 3 7 9 7 15 10 5 10 11 9 9 10
19 21 23 26 28 31 32 34 20 9 2 2 2 2 7 5 1 3 5 2 5 6 5 5 1 2 4 3 5 2 5 5 7 4 3 3 5 10 5 6 9 10 9 8 9
19 20 22 25 27 28 29 25 9 5 5 2 0 3 3 3 4 10 9 6 3 2 2 2 4 1 3 4 6 6 4 4 4 6 8 7 9 8 10 6 11 10 9 9 9
18 19 21 22 24 22 26 9 9 4 7 3 5 5 5 11 14 10 9 3 2 2 6 3 3 7 12 8 5 4 4 9 8 8 7 7 9 10 10 10 10 10 11 10 11
16 18 20 22 23 13 12 6 2 4 8 5 11 7 16 5 4 5 5 5 4 5 2 2 5 11 8 6 7 8 9 11 8 8 5 12 19 8 7 9 15 16 12 11 10
17 18 19 20 18 6 10 7 5 2 2 7 5 4 3 5 2 3 2 2 3 3 5 6 6 2 6 9 11 11 7 10 12 5 3 5 15 9 6 7 9 12 11 10 14
17 17 16 20 3 12 3 10 5 1 3 5 4 4 3 3 2 1 2 3 1 4 4 5 6 8 9 6 11 10 10 12 6 4 9 5 10 8 10 12 9 12 10 9 9
19 15 13 13 10 3 7 13 7 1 5 4 2 2 1 2 1 3 3 3 4 3 3 6 7 6 5 2 2 8 6 6 3 4 4 4 2 2 5 17 17 12 5 2 4
19 15 10 6 6 4 9 13 2 4 7 1 2 2 3 4 4 6 7 7 3 2 2 4 5 3 3 2 7 6 3 2 1 1 7 7 6 16 3 4 10 6 2 3 3
19 18 11 7 2 4 9 3 4 4 5 1 1 3 2 3 2 5 4 6 3 4 4 5 3 1 7 5 5 9 6 4 3 2 9 6 6 14 11 11 12 18 8 4 4
22 18 13 14 5 6 2 2 7 4 4 2 1 1 4 1 2 4 6 2 6 4 1 2 4 7 9 4 3 3 2 1 5 4 5 5 6 5 2 10 17 18 17 10 11
20 16 8 16 13 5 2 4 6 5 3 3 1 2 3 1 4 2 3 3 4 5 2 3 3 3 12 10 3 4 3 2 4 8 3 5 6 4 14 19 21 20 19 16 10
21 8 6 12 13 9 2 7 5 2 2 2 5 2 3 2 2 0 3 3 4 3 2 1 4 3 4 3 8 4 4 2 2 4 6 6 5 1 12 14 14 18 19 18 17
12 3 8 17 13 1 4 7 5 4 2 5 5 2 3 3 3 1 3 4 3 2 5 2 3 4 3 3 3 4 3 2 1 3 4 4 2 5 9 12 14 14 15 15 16
9 3 7 18 3 3 6 5 5 4 1 2 2 2 6 7 5 3 3 2 1 3 3 1 3 3 3 7 6 5 4 4 1 5 3 3 3 5 8 7 11 16 15 15 13
5 2 0 5 5 6 4 5 6 6 6 8 7 0 1 4 2 2 5 5 5 2 4 3 2 3 7 4 5 3 3 6 5 5 6 5 3 5 17 13 7 11 12 13 11
4 3 2 2 2 3 7 6 9 5 2 4 3 5 4 3 0 4 3 3 3 3 7 5 3 6 5 5 4 4 4 7 5 5 5 11 17 22 16 15 14 6 12 10 9
2 2 2 5 3 6 3 6 9 7 7 3 1 4 5 5 4 4 3 3 2 1 2 3 5 5 6 9 10 9 13 14 8 12 10 14 16 16 17 17 14 6 5 8 13
2 3 2 2 3 11 8 7 15 12 7 8 6 8 8 6 7 7 7 4 4 3 3 2 2 2 4 4 7 15 18 16 17 19 18 18 21 14 14 12 9 8 6 9 9
4 1 1 5 4 4 5 7 15 12 3 7 13 9 8 5 5 5 4 5 7 7 3 3 2 3 5 2 5 9 10 6 7 11 11 13 18 14 14 16 12 9 7 7 4
Wind_Direction
6 3 359 358 358 357 355 353 350 348 346 340 335 333 330 325 324 322 236 180 167 168 134 145 175 206 207 224 184 114 81 239 258 339 307 333 359 325 288 87 309 338 160 223 163
2 360 358 357 354 355 354 352 349 346 345 340 333 330 326 334 326 277 195 184 209 192 173 163 184 167 24 258 314 107 143 219 215 201 273 284 302 313 346 333 324 28 12 151 163
359 358 357 354 354 352 351 349 346 344 345 343 338 330 326 338 319 250 128 211 207 194 202 194 169 147 182 152 206 187 203 217 263 243 274 272 289 218 338 294 252 178 206 228 175
354 354 354 354 352 349 347 345 343 341 342 343 341 335 329 346 298 167 304 262 195 190 204 200 185 183 190 205 217 210 236 233 256 279 296 261 252 270 185 242 258 199 282 280 242
349 350 352 352 349 347 344 341 339 336 337 336 335 337 347 323 254 188 8 243 192 185 196 185 185 181 186 223 291 236 254 258 264 270 245 269 252 253 254 255 256 271 203 226 228
341 343 346 347 345 343 339 336 334 328 327 325 325 326 56 278 126 152 24 238 204 193 207 200 218 212 240 218 181 249 265 261 268 266 256 251 271 151 264 255 264 275 273 217 215
337 338 341 343 342 340 335 334 329 321 314 304 314 211 150 240 326 271 258 269 240 205 208 216 282 176 14 320 323 308 323 314 274 271 264 146 295 243 258 191 268 277 270 251 217
331 333 337 340 341 339 336 334 327 322 304 240 291 135 245 276 318 314 297 277 261 232 235 269 286 230 183 256 3 348 335 307 304 309 266 144 251 260 260 231 254 282 286 271 247
325 328 334 339 343 342 339 335 337 349 81 154 142 130 271 345 136 323 316 287 321 222 219 278 118 198 19 68 360 326 248 244 308 219 261 178 290 279 288 211 254 264 272 275 276
320 326 333 340 343 345 342 336 351 28 51 61 257 341 295 324 295 296 295 249 239 202 346 158 57 142 32 114 233 229 239 237 244 296 326 287 270 285 293 273 262 268 270 256 253
317 324 330 339 342 348 352 356 11 341 29 229 250 244 259 303 286 233 243 186 170 132 182 217 156 204 223 209 218 236 277 274 274 271 276 258 262 265 278 304 282 272 266 254 258
312 319 325 333 338 357 10 66 132 271 310 274 253 264 268 286 319 327 174 159 168 221 124 353 234 233 232 238 237 253 261 270 275 249 268 292 280 262 244 249 254 271 262 252 249
304 313 323 330 336 0 55 51 351 260 266 294 236 226 185 165 251 292 97 153 200 216 231 191 242 231 224 250 255 248 238 258 264 272 261 282 288 296 267 254 265 258 258 258 260
294 304 320 332 357 345 65 2 351 260 353 266 224 217 164 184 274 212 44 164 290 244 240 220 268 236 263 247 220 259 225 243 262 287 275 150 293 276 276 292 288 279 282 282 256
284 294 314 326 304 354 333 340 340 360 338 135 170 157 311 198 63 360 357 73 218 266 53 256 330 341 318 283 282 245 236 236 253 243 300 160 187 294 14 297 290 286 303 339 313
274 272 285 292 287 289 320 326 359 39 255 87 50 3 64 22 17 330 25 18 51 309 4 246 285 0 289 347 84 309 321 313 350 139 273 192 176 284 223 286 310 349 263 194 253
261 259 253 246 252 302 326 14 34 181 344 300 273 47 32 23 29 21 53 21 37 23 3 349 359 69 17 346 37 29 62 331 285 250 246 193 185 251 351 15 343 322 277 284 350
256 245 243 242 223 263 319 78 215 234 237 294 238 44 188 86 339 350 136 105 18 33 83 81 317 358 339 54 339 330 260 151 259 231 276 312 233 246 22 9 15 6 355 354 342
239 218 223 246 220 220 97 208 217 196 156 204 39 254 219 281 134 91 74 120 41 359 98 26 179 148 36 42 38 345 36 193 240 270 247 237 267 187 19 21 11 0 0 349 341
202 187 209 211 185 150 114 235 232 215 124 109 220 156 148 284 28 59 129 21 123 23 45 87 319 356 355 2 65 98 273 3 248 253 239 259 224 239 15 7 358 358 352 350 351
152 155 168 167 160 112 216 219 231 143 178 197 181 150 125 147 141 220 55 19 88 86 71 105 122 276 65 72 282 338 324 312 313 268 242 275 250 84 26 358 350 340 335 341 349
125 209 161 159 157 192 223 203 183 174 139 126 27 189 174 171 160 150 113 78 94 140 85 28 130 280 214 242 266 249 5 35 282 295 275 281 260 104 36 18 350 334 331 327 344
126 81 267 166 191 207 242 248 237 184 183 180 169 50 353 147 54 132 122 154 141 93 148 137 104 350 337 30 32 29 358 322 256 206 227 269 269 287 325 319 320 314 314 293 336
126 155 13 349 86 262 214 227 211 316 289 259 158 136 121 102 136 174 135 121 120 160 169 127 147 164 207 231 228 288 270 256 239 261 253 260 286 294 309 303 298 231 252 321 327
331 129 189 174 227 255 209 190 169 181 193 155 327 179 151 149 152 180 139 76 56 232 71 119 196 200 221 245 270 278 273 275 258 250 246 274 268 276 289 292 295 238 281 303 319
126 145 251 168 189 197 191 208 190 188 178 172 150 214 194 162 184 178 136 163 185 30 80 36 268 202 260 242 258 286 285 269 267 269 266 259 263 269 269 288 290 257 269 293 306
139 126 90 166 174 159 210 190 195 163 219 192 203 182 187 181 134 116 125 145 163 153 140 134 124 60 278 283 322 288 263 244 237 251 254 263 264 261 273 276 269 266 235 263 297
Height
833 830 828 825 822 819 816 813 810 807 803 800 797 794 790 787 785 782 780 777 777 778 780 781 782 782 783 783 783 787 815 821 804 796 790 775 776 762 756 757 754 753 754 749 754
834 831 828 824 821 818 816 812 809 806 802 798 794 792 788 785 782 780 776 776 777 777 778 779 781 782 788 787 788 797 818 805 787 779 782 776 776 773 769 766 760 754 750 749 750
833 830 827 824 820 817 814 811 807 804 801 796 793 790 787 785 785 776 775 775 776 778 779 779 781 782 787 786 789 795 805 791 781 776 774 775 774 767 772 774 763 761 754 751 749
833 830 827 824 820 817 813 809 805 802 799 795 792 789 787 786 792 774 774 775 775 777 779 779 781 786 792 792 785 794 784 781 777 771 774 774 765 768 767 763 757 759 756 754 752
832 829 826 823 819 815 811 807 803 799 797 794 791 789 787 788 781 774 774 773 774 775 776 778 783 785 792 789 787 790 784 777 773 772 770 768 770 769 762 753 752 750 754 754 751
832 829 826 822 818 813 808 803 800 796 793 791 790 789 789 792 774 774 774 774 775 776 777 778 778 778 782 785 787 779 777 776 772 769 769 770 769 767 750 750 751 749 747 748 748
832 829 826 821 816 811 805 800 795 791 789 788 788 788 789 781 774 773 773 773 773 774 775 775 777 780 780 785 779 778 784 779 770 768 768 762 772 769 748 749 752 750 745 741 742
831 828 825 821 816 809 802 796 790 785 783 784 786 788 784 773 774 774 773 772 772 772 773 775 775 775 777 775 782 786 785 796 776 768 762 765 778 753 744 751 751 748 744 740 738
829 826 823 819 814 808 800 793 788 784 783 783 785 786 783 772 773 773 772 772 772 772 773 773 774 779 781 793 802 796 804 793 784 766 767 769 775 754 744 747 748 744 740 738 735
827 824 821 817 812 806 799 791 788 787 786 786 787 791 777 777 773 771 770 770 771 771 774 775 783 789 797 801 816 805 802 792 787 771 766 771 770 758 749 748 746 742 739 735 730
826 823 820 816 811 808 801 792 795 791 788 788 784 783 776 772 769 766 767 769 770 773 786 779 794 802 791 792 788 789 792 795 785 771 773 769 765 760 751 751 747 742 737 733 728
824 821 819 816 812 809 806 807 813 814 806 785 783 784 777 776 776 767 766 773 775 785 782 790 797 784 782 784 787 791 796 792 780 767 766 765 755 754 751 746 738 730 726 727 722
824 821 819 815 812 811 811 813 812 812 815 786 775 772 771 772 772 768 767 771 777 782 784 796 784 774 780 783 786 784 791 786 780 768 763 764 757 754 745 739 731 723 718 716 713
821 821 819 816 815 813 813 813 811 811 815 787 776 770 769 770 774 765 764 770 775 782 780 784 772 775 777 781 777 784 772 770 772 777 784 760 777 755 744 736 728 721 716 715 709
820 820 820 817 815 815 817 814 812 813 820 775 775 769 769 773 772 769 765 766 776 776 779 782 775 774 777 773 770 776 763 766 764 775 774 771 784 748 745 739 727 721 714 710 708
816 816 816 816 816 814 813 812 812 820 816 782 774 776 776 776 777 774 776 772 775 776 780 782 771 774 776 770 773 768 765 766 768 776 787 772 772 740 752 744 733 723 713 709 710
810 812 813 814 813 813 811 810 824 825 780 788 785 782 784 785 783 784 792 796 797 792 798 792 785 781 779 779 775 776 781 805 797 791 781 763 770 744 747 761 757 734 721 714 712
808 809 810 810 809 810 812 814 817 792 787 783 782 784 786 789 790 789 795 802 801 800 805 805 800 796 793 794 798 794 793 796 800 798 796 774 774 753 759 757 748 744 735 728 726
804 806 808 808 809 811 815 815 800 791 784 789 787 789 792 791 793 794 794 802 808 809 802 812 807 803 801 798 793 801 807 804 805 790 796 780 757 748 753 755 755 755 750 744 735
796 802 802 803 808 809 818 801 789 784 785 786 792 788 795 798 799 799 795 801 808 807 806 817 821 809 806 796 800 809 811 810 803 808 792 771 763 752 760 763 766 762 758 753 742
793 800 797 801 806 812 810 792 782 783 785 790 786 792 796 797 800 802 802 809 807 807 808 812 822 824 813 819 820 817 816 810 815 812 804 783 765 764 772 772 771 766 763 758 749
789 796 796 798 809 808 801 787 780 784 787 790 793 792 792 798 798 800 802 808 809 806 814 817 831 843 830 818 814 818 825 828 831 832 826 813 777 771 772 773 774 771 765 761 751
791 797 797 796 803 802 795 785 782 786 785 789 789 793 796 800 808 802 803 807 809 810 815 815 833 860 828 825 824 827 828 828 832 838 836 817 777 769 775 772 770 773 770 769 753
790 796 802 798 797 791 787 791 791 791 793 798 789 791 794 799 806 809 806 808 808 810 807 814 831 845 851 838 840 850 842 834 831 836 844 813 803 779 778 775 768 768 768 757 752
785 786 788 799 797 798 793 789 794 799 787 793 799 792 792 804 807 806 806 812 813 812 816 819 832 836 836 829 827 830 826 821 832 823 825 808 804 788 777 770 764 764 760 756 749
785 788 795 792 791 792 793 791 787 791 787 786 791 798 796 801 796 806 805 812 817 821 822 828 835 829 834 826 826 824 816 813 809 804 800 791 786 777 770 765 762 759 755 752 746
784 786 783 785 787 792 788 781 780 781 791 793 796 789 793 792 795 801 803 809 815 822 826 830 835 847 852 827 830 833 807 803 798 789 787 790 774 766 764 758 756 754 751 748 746